COSMOS 2433 (720)

Last updated on Nov. 12, 2019, 4:19 a.m. UTC

1 32275U 07052A   19315.64071449 -.00000055  00000-0  10000-3 0  9992
2 32275  65.9082  36.2155 0003975 226.6789  55.5508  2.13104435 93741
UTC
Height (km)
Latitude
Longitude
Inclination
Orbital Period
UTC large
Height (km)
Speed (km/s)
/
Latitude / Longitude
Inclination (degrees)
Orbital Period (minutes)
Azimuth
Elevation
Range (km)
Doppler Factor
iOS Compass Heading
iOS Angle

Next 30 passes for location: Hong Kong

Rise time Rise Azimuth (degrees) Set time Set Azimuth (degrees) Duration Max altitude (degrees)

No matching passes for this satellites